OpenBCM V1.13 (Linux)

Packet Radio Mailbox

DB0FHN

[JN59NK Nuernberg]

 Login: GUEST





  
LU9DCE > KEP      06.12.19 21:04l 242 Lines 12030 Bytes #999 (0) @ WW
BID : 4551_LU9DCE
Read: DF7EAV DJ6UX GUEST
Subj: TLE 06 12
Path: DB0FHN<DB0BLO<DB0ERF<DB0RES<IR2UBX<IW0QNL<JH4XSY<N3HYM<N7HPX<LU9DCE
Sent: 191206/1600Z 4551@LU9DCE.TOR.BA.ARG.SOAM LinBPQ6.0.19

            __    _  _  ___  ____   ___  ____    ____  ____  ____
           (  )  / )( \/ _ \(    \ / __)(  __)  (  _ \(  _ \/ ___)
           / (_/\) \/ (\__  )) D (( (__  ) _)    ) _ ( ) _ (\___ \
           \____/\____/(___/(____/ \___)(____)  (____/(____/(____/
               ESTACION DE PACKET RADIO - BUENOS AIRES (GF05OM)
                   BOLETINES INFORMATIVOS PROGRAMADOS (BIP)
                  SLACKWARE LINUX - HELLOCODELINUX@GMAIL.COM
+----------------------------------------------------------------------------+
OSCAR 7
1  7530U 74089B   19340.49501605 -.00000041  00000-0  25393-4 0  9992
2  7530 101.7716 306.5553 0012408  18.6556 104.0724 12.53641025 61928
OSCAR 11 (UoSAT 2)
1 14781U 84021B   19340.52804958  .00000056  00000-0  13025-4 0  9990
2 14781  97.6001 357.0614 0009864 114.7714 245.4528 14.83125520924088
OSCAR 19 (LUSAT)
1 20442U 90005G   19339.83712443 +.00000014 +00000-0 +21342-4 0  9994
2 20442 098.6683 281.6895 0012054 013.4619 346.6884 14.32939796560686
EYESAT A
1 22825U 93061C   19340.49776350  .00000005  00000-0  19807-4 0  9990
2 22825  98.9163 333.1456 0007754 216.2230 143.8427 14.30072836366368
ITAMSAT
1 22826U 93061D   19340.52955314 -.00000003  00000-0  16886-4 0  9997
2 22826  98.9103 333.1484 0008443 204.2916 155.7868 14.30407201366570
RADIO ROSTO
1 23439U 94085A   19339.89036812 -.00000033 +00000-0 +25570-3 0  9998
2 23439 064.8140 200.8906 0145766 079.8818 281.8513 11.27569113027082
JAS 2
1 24278U 96046B   19339.84373495 -.00000001 +00000-0 +33788-4 0  9991
2 24278 098.5625 110.3889 0350721 158.8221 202.7856 13.53095161150566
TECHSAT 1B
1 25397U 98043D   19339.83941604 -.00000006 +00000-0 +16646-4 0  9994
2 25397 098.7069 278.0435 0000202 247.1784 112.9373 14.23675533111865
ISS (ZARYA)
1 25544U 98067A   19340.41720299 -.00000270  00000-0  33116-5 0  9990
2 25544  51.6436 227.4336 0006913   5.5371 163.4092 15.50089770201970
PCSAT
1 26931U 01043C   19339.88089851 -.00000054 +00000-0 +11146-4 0  9998
2 26931 067.0515 284.5030 0007263 264.6469 095.3804 14.30560774949248
SAUDISAT 1C
1 27607U 02058C   19340.47256295 -.00000062  00000-0  12171-4 0  9999
2 27607  64.5553 247.4494 0070522 222.9405 136.6180 14.75593348912237
CUTE-1
1 27844U 03031E   19339.90874519 +.00000053 +00000-0 +43441-4 0  9998
2 27844 098.6839 345.5768 0008842 257.3371 102.6818 14.22209171852446
CUBESAT XI 4
1 27848U 03031J   19339.80878426 +.00000036 +00000-0 +36242-4 0  9994
2 27848 098.6913 346.0112 0008692 270.9953 089.0229 14.21800151852282
MOZHAYETS 4
1 27939U 03042A   19340.38436695  .00000065  00000-0  20306-4 0  9996
2 27939  98.0638 113.1290 0011879 244.6838 115.3147 14.66821935865561
CUBESAT XI 5
1 28895U 05043F   19339.86497882 +.00000123 +00000-0 +32413-4 0  9994
2 28895 097.9825 117.0209 0017103 170.4310 189.7221 14.63717679752142
CUTE-1.7+APD II
1 32785U 08021C   19340.45070770  .00000202  00000-0  27343-4 0  9990
2 32785  97.5589 332.1975 0014393  60.0975 300.1670 14.88384845629082
DELFI C3
1 32789U 08021G   19339.85234396 +.00000698 +00000-0 +50214-4 0  9994
2 32789 097.4448 024.2220 0010618 261.2300 098.7725 15.07303818632497
SEEDS
1 32791U 08021J   19340.51593976  .00000180  00000-0  23558-4 0  9991
2 32791  97.5325 338.3687 0014150  34.5591 325.6544 14.90925869629561
YUBELEINY
1 32953U 08025A   19340.51183172  .00000021  00000-0  75656-4 0  9998
2 32953  82.5060  38.5281 0020305 116.6683 243.6480 12.43092642523531
PRISM (HITOMI)
1 33493U 09002B   19340.53950959  .00000580  00000-0  56170-4 0  9991
2 33493  98.1282 268.0127 0014668 342.1220  17.9482 14.96826549590705
KKS-1 (KISEKI)
1 33499U 09002H   19340.57115425  .00000075  00000-0  19060-4 0  9998
2 33499  98.3344 184.6244 0009724  29.5108 330.6647 14.75485615584425
SWISSCUBE
1 35932U 09051B   19340.47103209  .00000124  00000-0  38950-4 0  9996
2 35932  98.5994 151.6155 0007691  10.0997 350.0353 14.56336785541637
BEESAT
1 35933U 09051C   19340.46391263  .00000093  00000-0  31914-4 0  9993
2 35933  98.6008 153.4325 0006161  25.2316 334.9180 14.56419343541741
ITUPSAT 1
1 35935U 09051E   19339.72677686 +.00000084 +00000-0 +30580-4 0  9996
2 35935 098.6117 152.8958 0008461 022.6865 337.4703 14.55572352541348
XIWANG-1 (HOPE-1)
1 36122U 09072B   19339.75803482 -.00000052 +00000-0 -25773-4 0  9991
2 36122 100.0805 334.1883 0007037 316.0853 043.9680 13.16352161479259
TISAT 1
1 36799U 10035E   19340.39251617  .00000452  00000-0  51573-4 0  9990
2 36799  98.1744 138.4530 0011171 243.5783 116.4288 14.91219320510206
JUGNU
1 37839U 11058B   19339.84352644 +.00000299 +00000-0 +17477-4 0  9996
2 37839 019.9626 022.9434 0019130 043.2843 111.6605 14.12666123421231
SRMSAT
1 37841U 11058D   19340.47658330  .00000298  00000-0  18362-4 0  9994
2 37841  19.9723  79.4113 0011727 273.3283 169.5996 14.10644769420831
M-CUBED/EXP-1 PRIME
1 37855U 11061F   19339.92400606 +.00001034 +00000-0 +59327-4 0  9997
2 37855 101.7248 323.0015 0172265 292.1084 066.1918 15.05854740441926
HORYU 2
1 38340U 12025D   19340.37100306  .00000130  00000-0  26958-4 0  9993
2 38340  98.3094  23.9033 0010363 303.3834  56.6382 14.75783495406339
STRAND 1
1 39090U 13009E   19339.83767760 +.00000035 +00000-0 +27407-4 0  9995
2 39090 098.4699 182.8097 0009817 138.1642 222.0295 14.35108325354773
SOMP
1 39134U 13015E   19339.86171050 +.00000838 +00000-0 +46952-4 0  9992
2 39134 064.8616 188.9710 0037642 276.0276 083.6563 15.20550836366088
BEESAT 3
1 39135U 13015F   19339.89168270 +.00000504 +00000-0 +34383-4 0  9991
2 39135 064.8657 209.5925 0041891 278.9398 080.6987 15.17773669365688
BEESAT 2
1 39136U 13015G   19339.92786126 +.00000693 +00000-0 +44431-4 0  9996
2 39136 064.8690 213.8028 0030599 284.5159 075.2573 15.17192996365600
CUBEBUG 1
1 39153U 13018D   19340.27125109  .00000160  00000-0  27739-4 0  9997
2 39153  97.9820  77.4762 0016998  10.4798 349.6765 14.80634625357052
ZACUBE
1 39417U 13066B   19340.48841776  .00000162  00000-0  26739-4 0  9992
2 39417  97.5614 344.3829 0058581 192.5860 167.3894 14.81187996326327
TRITON 1
1 39427U 13066M   19340.48615127  .00000154  00000-0  32671-4 0  9995
2 39427  97.6991 307.5173 0113323 339.4100  20.2558 14.67915792323390
GOMX 1
1 39430U 13066Q   19340.42588089  .00000218  00000-0  48027-4 0  9992
2 39430  97.7694 285.9204 0152436  76.0272 285.7826 14.59318849321509
HUMSAT D
1 39433U 13066T   19340.40205327  .00000520  00000-0  55735-4 0  9994
2 39433  97.5333  20.7444 0032219  91.2259 269.2652 14.92319246328534
CUBEBUG 2
1 39440U 13066AA  19340.53245635  .00000161  00000-0  29574-4 0  9995
2 39440  97.6136 328.9849 0078811 249.6927 109.5801 14.75926707325171
FUNCUBE 1
1 39444U 13066AE  19340.52899258  .00000225  00000-0  33958-4 0  9996
2 39444  97.5578 346.5214 0057874 185.5191 174.5393 14.82022141325235
UWE-3
1 39446U 13066AG  19340.51478417  .00000152  00000-0  26859-4 0  9998
2 39446  97.5869 336.1367 0068979 221.7479 137.8459 14.78460632324504
SPROUT
1 39770U 14029E   19340.29966825  .00000523  00000-0  63735-4 0  9994
2 39770  97.8914  82.5698 0007946 242.4674 117.5735 14.87529077300191
UNISAT 6
1 40012U 14033C   19340.53857785  .00000111  00000-0  24083-4 0  9997
2 40012  97.7320 199.5666 0056928 266.5838  92.8858 14.74040841293857
DUCHIFAT 1
1 40021U 14033M   19340.51042857  .00000205  00000-0  26723-4 0  9998
2 40021  97.9311 265.7096 0012151 201.5089 158.5620 14.90754836296998
QB50P1
1 40025U 14033R   19340.52571897  .00000227  00000-0  30052-4 0  9998
2 40025  97.9089 259.9336 0011525 212.4387 147.6123 14.89032769296744
CHUBUSAT 1
1 40300U 14070C   19340.24045045  .00000524  00000-0  25651-4 0  9994
2 40300  97.3126  49.9755 0019846 172.0221 224.0023 15.22276818281960
NUDT-PHONESAT
1 40900U 15049B   19340.54264000  .00001747  00000-0  76430-4 0  9993
2 40900  97.4359 348.2442 0011522 310.9348 208.7782 15.23360602233660
ZDPS 2A
1 40901U 15049C   19340.43150601  .00000658  00000-0  35700-4 0  9998
2 40901  97.4621 343.8244 0013035 336.1592 155.9909 15.17963981233134
ZDPS 2B
1 40902U 15049D   19340.40694949  .00001164  00000-0  60711-4 0  9997
2 40902  97.4571 341.1622 0012732 333.3431 155.2687 15.17866452233102
XW-2A
1 40903U 15049E   19340.43137826  .00001449  00000-0  35497-4 0  9996
2 40903  97.3167  24.0011 0011704 244.3221 170.3933 15.42391773236560
KAITUO 1A
1 40904U 15049F   19340.42910818  .00000328  00000-0  20805-4 0  9998
2 40904  97.4723 339.5757 0014319 342.7309 157.9620 15.15525337232853
OBJECT G
1 40905U 15049G   19340.43744589  .00000095  00000-0  87269-5 0  9999
2 40905  97.4778 336.9610 0015125 337.7024 182.0770 15.14406029232712
XW-2C
1 40906U 15049H   19340.38818984  .00000602  00000-0  34902-4 0  9994
2 40906  97.4727 339.7010 0014037 333.4681 133.7663 15.15850149232851
XW-2D
1 40907U 15049J   19340.40983352  .00000701  00000-0  39882-4 0  9992
2 40907  97.4714 339.4065 0013372 330.7928 135.8213 15.16054907232875
LILACSAT 2
1 40908U 15049K   19340.39652287  .00000539  00000-0  33357-4 0  9991
2 40908  97.4849 338.0144 0015253 338.3867 131.3223 15.13909097232636
XW-2F
1 40910U 15049M   19340.47416560  .00000986  00000-0  52374-4 0  9991
2 40910  97.4655 341.7381 0013828 321.4410 166.6019 15.17578102232919
XW-2B
1 40911U 15049N   19340.45953485  .00000568  00000-0  33001-4 0  9994
2 40911  97.4720 340.1325 0013354 331.3424 184.7675 15.15982954232778
KAITUO 1B
1 40912U 15049P   19340.30940836  .00000865  00000-0  43404-4 0  9993
2 40912  97.4501 345.4838 0013427 300.6127 185.0731 15.19923625233225
TIANWANG 1C (TW-1C)
1 40926U 15051B   19340.57839131  .00010893  00000-0  13877-3 0  9997
2 40926  97.1148  26.7069 0008973  94.9882  48.7494 15.59453273236753
